Погода в Поселке совхоза Комсомолец

Россия / Тамбовская область     52°46′07″N   41°17′18″E
темп.,
°C
ветер,
м/с
пор.,
м/с
влажн.,
%
обл.,
%
осадки,
мм/ч
давл.,
гПа
погр.,
м
17 мая, пн
пн1700:00+17вюв338125 0.0 101221
03:00+15в34865 0.0 101359
06:00+16юв358230 0.0 101293
09:00+23юв5106042 0.0 1013404
12:00+25юв6104698 0.0 1013885
15:00+26юв6105294 0.0 10121115
18:00+24юв5126371 0.0 1011429
21:00+18вюв4137244 0.0 1011218
18 мая, вт
вт1800:00+18юв6175759 0.0 1011334
03:00+17вюв5145097 0.0 1011297
06:00+15вюв5136939 0.0 1011235
09:00+22юв612535 0.0 1010453
12:00+26вюв7114623 0.0 10091045
15:00+27юв8145090 0.0 10081258
18:00+24вюв714575 0.0 1008476
21:00+18юв348065 0.0 100947
19 мая, ср
ср1900:00+16ююз3381100 0.0 100943
03:00+15всв3487100 0.0 100851
06:00+16ююв2483100 0.0 1008150
09:00+19юв3568100 0.0 1008420
12:00+23юв585699 0.0 1008895
15:00+25юв5105396 0.0 10081744
18:00+24юв476315 0.0 1006272
21:00+18ююз228517 0.1 100618
20 мая, чт
чт2000:00+16юз3794100 1.6 1008180
03:00+14ююв3597100 1.6 1008149
06:00+14ююз3594100 1.1 1007299
09:00+14ю588995 1.6 1008629
12:00+17ю6875100 1.2 10091187
15:00+19ю686514 1.8 10081477
18:00+16ююз68770 1.1 1008830
21:00+12ююз499240 1.2 1010224
21 мая, пт
пт2100:00+11ююз411951 0.0 1010291
03:00+10ююз499643 0.0 1011191
06:00+12ю51291100 0.0 1012379
09:00+14ююз61185100 0.2 1013796
12:00+13ю5129093 1.3 1013667
15:00+18ююз7117253 2.1 10131259
18:00+18юз6107448 0.7 1013964
21:00+14з61285100 0.7 1015457